Change the Weather History Date:

Friday, June 1, 2012

  Actual Average Record
Temperature  
Mean Temperature 70 °F 73 °F  
Max Temperature 79 °F 85 °F 98 °F (2011)
Min Temperature 59 °F 61 °F 57 °F (2003)
Cooling Degree Days 6 8  
Month to date cooling degree days 8  
Year to date cooling degree days 176  
Since 1 June cooling degree days 8  
Growing Degree Days 20 (Base 50)    
Moisture  
Dew Point 62 °F    
Average Humidity 80    
Maximum Humidity 100    
Minimum Humidity 41    
Precipitation  
Precipitation 0.12 in 0.15 in 1.57 in (2001)
Month to date precipitation 0.15  
Year to date precipitation 23.02  
Sea Level Pressure  
Sea Level Pressure 29.81 in    
Wind  
Wind Speed 4 mph (WSW)    
Max Wind Speed 10 mph    
Max Gust Speed 18 mph    
Visibility 8 miles    
Events Rain    
T = Trace of Precipitation, MM = Missing Value Source: NWS Daily Summary

Daily Weather History Graph

Daily Weather History Graph

Search for Another Location

Airport or City:

Trip Planner

Search our weather history database for the weather conditions in past years. The results will help you decide how hot, cold, wet, or windy it might be!

Date:

Astronomy

Jun. 01, 2012 Rise Set
Actual Time 6:29 AM EDT 8:48 PM EDT
Civil Twilight 6:00 AM EDT 9:16 PM EDT
Nautical Twilight 5:25 AM EDT 9:52 PM EDT
Astronomical Twilight 4:46 AM EDT 10:31 PM EDT
Moon 5:54 PM EDT (6/1) 3:57 AM EDT (6/1)
Length of Visible Light 15h 16m
Length of Day
14h 18m
Waxing Gibbous, 89% of the Moon is Illuminated
Jun 1
Waxing Gibbous
Jun 4
Full
Jun 11
Last Quarter
Jun 19
New
Jun 26
First Quarter

Hourly Weather History & Observations

Time (EDT) Temp. Dew Point Humidity Pressure Visibility Wind Dir Wind Speed Gust Speed Precip Events Conditions
12:53 AM 70.0 °F 64.9 °F 84% 29.77 in 10.0 mi SSW 3.5 mph - N/A   Scattered Clouds
1:53 AM 70.0 °F 64.9 °F 84% 29.77 in 10.0 mi Calm Calm - N/A   Scattered Clouds
2:53 AM 69.1 °F 66.0 °F 90% 29.75 in 10.0 mi NW 3.5 mph - N/A   Scattered Clouds
3:53 AM 68.0 °F 66.0 °F 93% 29.73 in 10.0 mi Calm Calm - 0.00 in Rain Light Rain
4:53 AM 66.9 °F 64.9 °F 93% 29.74 in 10.0 mi SSW 4.6 mph - 0.00 in Rain Light Rain
5:53 AM 68.0 °F 66.0 °F 93% 29.75 in 10.0 mi Calm Calm - 0.00 in   Scattered Clouds
6:53 AM 66.9 °F 66.0 °F 97% 29.77 in 9.0 mi Calm Calm - 0.00 in   Overcast
7:53 AM 66.9 °F 66.0 °F 97% 29.78 in 5.0 mi SSW 3.5 mph - 0.02 in Rain Light Rain
8:53 AM 68.0 °F 66.0 °F 93% 29.79 in 10.0 mi SW 3.5 mph - 0.00 in   Scattered Clouds
9:53 AM 71.1 °F 64.9 °F 81% 29.79 in 10.0 mi Variable 6.9 mph - N/A   Scattered Clouds
10:10 AM 69.8 °F 64.4 °F 83% 29.82 in 10.0 mi SSW 3.5 mph - N/A   Mostly Cloudy
10:53 AM 69.1 °F 64.0 °F 84% 29.81 in 10.0 mi SW 6.9 mph - 0.00 in Rain Light Rain
11:20 AM 66.2 °F 66.2 °F 100% 29.84 in 1.8 mi SW 5.8 mph - 0.02 in Rain Rain
11:28 AM 66.2 °F 66.2 °F 100% 29.84 in 1.0 mi SW 5.8 mph - 0.07 in Rain Rain
11:38 AM 66.2 °F 66.2 °F 100% 29.84 in 2.0 mi SSW 4.6 mph - 0.09 in Rain Light Rain
11:53 AM 66.9 °F 66.0 °F 97% 29.82 in 2.5 mi SW 5.8 mph - 0.11 in Rain Light Rain
12:10 PM 66.2 °F 66.2 °F 100% 29.84 in 3.0 mi SSW 4.6 mph - 0.01 in Rain Light Rain
12:17 PM 66.2 °F 66.2 °F 100% 29.84 in 2.0 mi Calm Calm - 0.02 in Rain Light Rain
12:25 PM 66.2 °F 66.2 °F 100% 29.84 in 4.0 mi WSW 5.8 mph - 0.02 in Rain Light Rain
12:32 PM 66.2 °F 66.2 °F 100% 29.84 in 7.0 mi WSW 6.9 mph - 0.02 in Rain Light Rain
12:51 PM 69.8 °F 66.2 °F 88% 29.84 in 10.0 mi West 5.8 mph - 0.02 in   Overcast
12:53 PM 69.1 °F 66.0 °F 90% 29.82 in 10.0 mi WNW 6.9 mph - 0.02 in   Overcast
1:09 PM 71.6 °F 64.4 °F 78% 29.84 in 10.0 mi WNW 9.2 mph 17.3 mph N/A   Mostly Cloudy
1:20 PM 71.6 °F 64.4 °F 78% 29.84 in 10.0 mi West 5.8 mph - N/A   Overcast
1:53 PM 73.9 °F 64.0 °F 71% 29.82 in 10.0 mi Variable 5.8 mph - N/A   Mostly Cloudy
2:31 PM 73.4 °F 64.4 °F 73% 29.83 in 10.0 mi Variable 4.6 mph - N/A   Mostly Cloudy
2:49 PM 73.4 °F 62.6 °F 69% 29.83 in 10.0 mi West 6.9 mph - N/A   Mostly Cloudy
2:53 PM 73.0 °F 62.1 °F 68% 29.81 in 10.0 mi West 6.9 mph - N/A   Mostly Cloudy
3:53 PM 77.0 °F 59.0 °F 54% 29.79 in 10.0 mi West 10.4 mph 17.3 mph N/A   Clear
4:53 PM 79.0 °F 55.0 °F 44% 29.79 in 10.0 mi WNW 10.4 mph - N/A   Clear
5:53 PM 78.1 °F 54.0 °F 43% 29.79 in 10.0 mi West 6.9 mph - N/A   Clear
6:53 PM 75.0 °F 54.0 °F 48% 29.80 in 10.0 mi WNW 8.1 mph - N/A   Partly Cloudy
7:53 PM 73.0 °F 54.0 °F 51% 29.82 in 10.0 mi NW 9.2 mph - N/A   Clear
8:53 PM 68.0 °F 52.0 °F 56% 29.86 in 10.0 mi NNW 10.4 mph 18.4 mph N/A   Clear
9:53 PM 64.0 °F 51.1 °F 63% 29.87 in 10.0 mi NNW 5.8 mph - N/A   Clear
10:53 PM 62.1 °F 51.1 °F 67% 29.90 in 10.0 mi NNW 6.9 mph - N/A   Clear
11:53 PM 59.0 °F 53.1 °F 81% 29.91 in 10.0 mi Calm Calm - N/A   Clear